Hourly Data Report for October 31, 2015

All times are specified in Local Standard Time (LST). Add 1 hour to adjust for Daylight Saving Time where and when it is observed.

RESOLUTE BAY A
NUNAVUT

74°43'01.000" N
94°58'10.000" W
67.70 m
2403498
71924
YRB

Download Data

Hourly Data (October 2015)
Hourly Data Report for October 31, 2015
Temp Definition
°C
Dew Point Temp Definition
°C
Rel Hum Definition
%
Wind Dir Definition
10's deg

Wind Spd Definition
km/h
Visibility Definition
km
Stn Press Definition
kPa
Hmdx Definition


Wind Chill Definition


Weather Definition


TIME
00:00 Legend Double Dagger -14.9 -17.2 83 32 31 24.1 100.15   -26 Snow
01:00 Legend Double Dagger -15.0 -17.3 83 33 26 24.1 100.15   -25 Snow
02:00 Legend Double Dagger -15.7 -18.0 83 35 22 24.1 100.15   -25 Snow
03:00 Legend Double Dagger -15.7 -18.0 83 35 16 16.1 100.16   -24 Snow
04:00 Legend Double Dagger -15.0 -18.7 74 32 28 24.1 100.17   -26 Snow
05:00 Legend Double Dagger -15.1 -19.8 68 32 29 24.1 100.17   -26 Snow
06:00 Legend Double Dagger -15.8 -19.6 73 34 23 24.1 100.17   -26 Snow
07:00 Legend Double Dagger -15.7 -19.2 75 34 19 24.1 100.15   -25 Snow
08:00 Legend Double Dagger -15.4 -19.0 74 33 22 12.9 100.14   -25 Snow
09:00 Legend Double Dagger -15.3 -19.0 74 33 25 12.9 100.12   -26 Snow
10:00 Legend Double Dagger -15.7 -18.3 81 35 19 6.4 100.12   -25 Snow
11:00 Legend Double Dagger -16.1 -18.7 81 35 24 16.1 100.12   -26 Snow
12:00 Legend Double Dagger -16.3 -18.8 81 36 21 16.1 100.16   -26 Snow
13:00 Legend Double Dagger -16.2 -19.2 78 35 24 16.1 100.19   -27 Snow
14:00 Legend Double Dagger -16.0 -19.6 74 35 27 16.1 100.20   -27 Snow
15:00 Legend Double Dagger -16.0 -20.3 70 1 25 16.1 100.24   -26 Snow
16:00 Legend Double Dagger -16.1 -20.1 72 2 19 16.1 100.24   -25 Snow
17:00 Legend Double Dagger -15.7 -20.0 70 2 11 12.9 100.26   -22 Snow
18:00 Legend Double Dagger -15.9 -19.9 72 9 4 12.9 100.27   -19 Snow
19:00 Legend Double Dagger -16.3 -18.7 82 17 6 12.9 100.28   -21 Snow
20:00 Legend Double Dagger -15.6 -17.6 85 23 25 24.1 100.26   -26 Snow
21:00 Legend Double Dagger -15.8 -17.8 85 23 21 24.1 100.28   -25 Snow
22:00 Legend Double Dagger -16.0 -17.8 86 21 25 24.1 100.29   -26 Snow
23:00 Legend Double Dagger -16.1 -17.8 87 21 22 16.1 100.31   -26 Snow

Notes on Data Quality.

Legend

  • E = Estimated
  • M = Missing
  • NA = Not Available
  • ‡ = Partner data that is not subject to review by the National Climate Archives
Date modified: